Weather History for Shawano, WI

Change the Weather History Date:

Monday, December 31, 2012

  Actual Average (KGRB) Record (KGRB)
Temperature  
Mean Temperature 16 °F 18 °F  
Max Temperature 24 °F 25 °F 51 °F (1965)
Min Temperature 8 °F 10 °F -19 °F (1967)
Degree Days  
Heating Degree Days 49 47  
Month to date heating degree days 1350  
Since 1 July heating degree days 3090  
Cooling Degree Days 0 0  
Month to date cooling degree days 0  
Year to date cooling degree days 398  
Moisture  
Dew Point 11 °F    
Average Humidity 69    
Maximum Humidity 86    
Minimum Humidity 54    
Precipitation  
Precipitation 0.00 in 0.04 in 0.85 in (2006)
Month to date precipitation 1.51  
Year to date precipitation 29.52  
Snow  
Snow 0.00 in 0.40 in 6.20 in (1887)
Month to date snowfall 13.1  
Since 1 July snowfall 17.3  
Snow Depth -    
Sea Level Pressure  
Sea Level Pressure 30.00 in    
Wind  
Wind Speed 6 mph (WNW)    
Max Wind Speed 12 mph    
Max Gust Speed 18 mph    
Visibility 9 miles    
Events Snow    
T = Trace of Precipitation, MM = Missing Value Source: NWS Daily Summary

Daily Weather History Graph

Daily Weather History Graph

Search for Another Location

Airport:

Trip Planner

Search our weather history database for the weather conditions in past years. The results will help you decide how hot, cold, wet, or windy it might be!

Date:

Astronomy

Dec. 31, 2012 Rise Set
Actual Time 7:31 AM CST 4:23 PM CST
Civil Twilight 6:58 AM CST 4:57 PM CST
Nautical Twilight 6:21 AM CST 5:33 PM CST
Astronomical Twilight 5:45 AM CST 6:09 PM CST
Moon 8:03 PM CST (12/31) 9:04 AM CST (12/31)
Length of Visible Light 9h 58m
Length of Day
8h 51m
Waning Gibbous, 90% of the Moon is Illuminated
Dec 31
Waning Gibbous
Jan 4
Last Quarter
Jan 11
New
Jan 18
First Quarter
Jan 26
Full

Hourly Weather History & Observations

Time (CST) Temp. Windchill Dew Point Humidity Pressure Visibility Wind Dir Wind Speed Gust Speed Precip Events Conditions
12:15 AM 19.4 °F 14.3 °F 14.0 °F 80% 29.89 in 7.0 mi SW 3.5 mph - N/A   Overcast
12:35 AM 19.4 °F 11.5 °F 14.0 °F 80% 29.88 in 7.0 mi WSW 5.8 mph - N/A   Overcast
12:55 AM 19.4 °F 14.3 °F 14.0 °F 80% 29.88 in 7.0 mi WSW 3.5 mph - N/A   Overcast
1:15 AM 21.2 °F 16.4 °F 15.8 °F 80% 29.88 in 7.0 mi WSW 3.5 mph - N/A   Overcast
1:35 AM 21.2 °F 16.4 °F 15.8 °F 80% 29.88 in 7.0 mi WSW 3.5 mph - N/A   Overcast
1:55 AM 21.2 °F 14.9 °F 17.6 °F 86% 29.88 in 7.0 mi WSW 4.6 mph - N/A   Overcast
2:15 AM 23.0 °F 18.4 °F 17.6 °F 80% 29.88 in 7.0 mi WSW 3.5 mph - N/A   Overcast
2:35 AM 23.0 °F 18.4 °F 17.6 °F 80% 29.88 in 7.0 mi WSW 3.5 mph - N/A   Overcast
2:55 AM 23.0 °F 18.4 °F 17.6 °F 80% 29.87 in 7.0 mi SW 3.5 mph - N/A   Mostly Cloudy
3:15 AM 21.2 °F 16.4 °F 17.6 °F 86% 29.88 in 7.0 mi SW 3.5 mph - N/A   Scattered Clouds
3:35 AM 21.2 °F 16.4 °F 17.6 °F 86% 29.87 in 7.0 mi SW 3.5 mph - N/A   Clear
3:55 AM 21.2 °F 14.9 °F 17.6 °F 86% 29.88 in 7.0 mi SW 4.6 mph - N/A   Clear
4:15 AM 21.2 °F 14.9 °F 17.6 °F 86% 29.88 in 7.0 mi WSW 4.6 mph - N/A   Clear
4:35 AM 21.2 °F 14.9 °F 17.6 °F 86% 29.89 in 7.0 mi WSW 4.6 mph - N/A   Clear
4:55 AM 23.0 °F 15.8 °F 19.4 °F 86% 29.88 in 7.0 mi WSW 5.8 mph - N/A   Mostly Cloudy
5:15 AM 23.0 °F 15.8 °F 19.4 °F 86% 29.89 in 7.0 mi WSW 5.8 mph - N/A   Overcast
5:35 AM 23.0 °F 17.0 °F 19.4 °F 86% 29.89 in 7.0 mi WSW 4.6 mph - N/A   Scattered Clouds
5:55 AM 21.2 °F 13.6 °F 17.6 °F 86% 29.90 in 7.0 mi WSW 5.8 mph - N/A   Clear
6:35 AM 21.2 °F 14.9 °F 17.6 °F 86% 29.94 in 7.0 mi West 4.6 mph - N/A   Mostly Cloudy
6:55 AM 23.0 °F 15.8 °F 17.6 °F 80% 29.93 in 7.0 mi West 5.8 mph - N/A   Overcast
7:35 AM 23.0 °F 15.8 °F 19.4 °F 86% 29.94 in 7.0 mi West 5.8 mph - N/A   Overcast
8:15 AM 24.8 °F 16.1 °F 17.6 °F 74% 29.96 in 10.0 mi WNW 8.1 mph - N/A   Overcast
8:35 AM 24.8 °F 15.3 °F 17.6 °F 74% 29.95 in 10.0 mi WNW 9.2 mph - N/A   Overcast
8:55 AM 24.8 °F 14.6 °F 17.6 °F 74% 29.97 in 10.0 mi WNW 10.4 mph - N/A   Overcast
9:15 AM 23.0 °F 13.1 °F 15.8 °F 74% 29.99 in 10.0 mi WNW 9.2 mph - N/A   Overcast
9:35 AM 23.0 °F 11.7 °F 14.0 °F 68% 30.00 in 10.0 mi WNW 11.5 mph 18.4 mph N/A   Overcast
9:55 AM 23.0 °F 13.1 °F 14.0 °F 68% 30.00 in 10.0 mi WNW 9.2 mph - N/A Snow Light Snow
10:15 AM 23.0 °F 13.1 °F 14.0 °F 68% 30.00 in 10.0 mi NW 9.2 mph - N/A Snow Light Snow
10:35 AM 23.0 °F 14.7 °F 14.0 °F 68% 30.01 in 10.0 mi WNW 6.9 mph - N/A   Overcast
10:55 AM 23.0 °F 12.4 °F 12.2 °F 63% 30.01 in 10.0 mi WNW 10.4 mph - N/A   Mostly Cloudy
11:15 AM 23.0 °F 12.4 °F 12.2 °F 63% 30.01 in 10.0 mi WNW 10.4 mph 17.3 mph N/A   Mostly Cloudy
11:35 AM 24.8 °F 15.3 °F 12.2 °F 59% 30.01 in 10.0 mi WNW 9.2 mph - N/A   Mostly Cloudy
11:55 AM 24.8 °F 16.1 °F 12.2 °F 59% 30.00 in 10.0 mi WNW 8.1 mph - N/A   Overcast
12:15 PM 24.8 °F 14.6 °F 10.4 °F 54% 29.99 in 10.0 mi WNW 10.4 mph 16.1 mph N/A   Scattered Clouds
12:35 PM 24.8 °F 14.6 °F 10.4 °F 54% 29.99 in 10.0 mi WNW 10.4 mph - N/A   Clear
12:55 PM 24.8 °F 14.0 °F 10.4 °F 54% 29.99 in 10.0 mi NW 11.5 mph - N/A   Scattered Clouds
1:15 PM 24.8 °F 16.1 °F 10.4 °F 54% 29.99 in 10.0 mi NW 8.1 mph - N/A   Scattered Clouds
1:35 PM 23.0 °F 13.1 °F 10.4 °F 59% 29.99 in 10.0 mi NW 9.2 mph - N/A   Scattered Clouds
1:55 PM 23.0 °F 12.4 °F 10.4 °F 59% 29.99 in 10.0 mi WNW 10.4 mph - N/A   Clear
2:15 PM 23.0 °F 12.4 °F 8.6 °F 54% 30.00 in 10.0 mi WNW 10.4 mph - N/A   Clear
2:35 PM 23.0 °F 12.4 °F 8.6 °F 54% 30.01 in 10.0 mi WNW 10.4 mph 16.1 mph N/A   Clear
2:55 PM 23.0 °F 12.4 °F 8.6 °F 54% 30.02 in 10.0 mi NW 10.4 mph - N/A   Clear
3:15 PM 23.0 °F 14.7 °F 8.6 °F 54% 30.02 in 10.0 mi NW 6.9 mph - N/A   Clear
3:35 PM 21.2 °F 12.6 °F 6.8 °F 54% 30.03 in 10.0 mi WNW 6.9 mph - N/A   Clear
3:55 PM 21.2 °F 14.9 °F 6.8 °F 54% 30.04 in 10.0 mi WNW 4.6 mph - N/A   Clear
4:15 PM 21.2 °F - 6.8 °F 54% 30.05 in 10.0 mi Calm Calm - N/A   Clear
4:35 PM 19.4 °F 11.5 °F 6.8 °F 58% 30.06 in 10.0 mi NW 5.8 mph - N/A   Clear
4:55 PM 19.4 °F 11.5 °F 6.8 °F 58% 30.06 in 10.0 mi NW 5.8 mph - N/A   Clear
5:15 PM 19.4 °F 14.3 °F 5.0 °F 54% 30.07 in 10.0 mi NW 3.5 mph - N/A   Clear
5:35 PM 17.6 °F 9.3 °F 5.0 °F 58% 30.08 in 10.0 mi NW 5.8 mph - N/A   Clear
5:55 PM 17.6 °F 10.7 °F 5.0 °F 58% 30.09 in 10.0 mi NW 4.6 mph - N/A   Clear
6:15 PM 17.6 °F 10.7 °F 5.0 °F 58% 30.09 in 10.0 mi NNW 4.6 mph - N/A   Clear
6:35 PM 17.6 °F 10.7 °F 5.0 °F 58% 30.09 in 10.0 mi NNW 4.6 mph - N/A   Clear
6:55 PM 17.6 °F 8.2 °F 5.0 °F 58% 30.10 in 10.0 mi NNW 6.9 mph - N/A   Clear
7:15 PM 15.8 °F 8.6 °F 5.0 °F 62% 30.11 in 10.0 mi NNW 4.6 mph - N/A   Clear
7:35 PM 15.8 °F 5.1 °F 5.0 °F 62% 30.11 in 10.0 mi North 8.1 mph - N/A   Clear
7:55 PM 14.0 °F 6.5 °F 3.2 °F 62% 30.11 in 10.0 mi North 4.6 mph - N/A   Clear
8:35 PM 14.0 °F 6.5 °F 3.2 °F 62% 30.13 in 10.0 mi NW 4.6 mph - N/A   Clear
8:55 PM 12.2 °F 4.3 °F 3.2 °F 67% 30.13 in 10.0 mi NW 4.6 mph - N/A   Clear
9:15 PM 12.2 °F 4.3 °F 3.2 °F 67% 30.13 in 10.0 mi NNW 4.6 mph - N/A   Clear
9:35 PM 12.2 °F - 3.2 °F 67% 30.13 in 10.0 mi Calm Calm - N/A   Clear
9:55 PM 10.4 °F - 3.2 °F 73% 30.14 in 10.0 mi Calm Calm - N/A   Clear
10:15 PM 10.4 °F - 3.2 °F 73% 30.14 in 10.0 mi Calm Calm - N/A   Clear
10:35 PM 8.6 °F 2.0 °F 1.4 °F 73% 30.14 in 10.0 mi WNW 3.5 mph - N/A   Clear
10:55 PM 8.6 °F 2.0 °F 1.4 °F 73% 30.14 in 10.0 mi WNW 3.5 mph - N/A   Clear
11:15 PM 8.6 °F 2.0 °F 1.4 °F 73% 30.14 in 10.0 mi WNW 3.5 mph - N/A   Clear
11:35 PM 8.6 °F -1.3 °F 1.4 °F 73% 30.15 in 10.0 mi West 5.8 mph - N/A   Clear
11:55 PM 8.6 °F -1.3 °F 1.4 °F 73% 30.15 in 10.0 mi West 5.8 mph - N/A   Clear